Total_Precipitation_Accumulation
0.27 0.33 0.36 0.46 0.45 0.48 0.64 0.82 0.87 0.98 1.07 1.11 0.94 0.83 0.83 0.79 0.71 0.86 0.85 0.64 0.55 0.64 0.85 1.01 0.98 0.89 0.83 0.88 0.91 0.88 0.84 0.86 0.79 0.59 0.49 0.46 0.48 0.55 0.53 0.46 0.40 0.35 0.33
0.49 0.57 0.59 0.68 0.62 0.68 0.82 1.01 1.09 1.34 1.25 1.16 0.93 0.89 0.85 0.83 0.73 0.72 0.73 0.68 0.52 0.53 0.64 0.82 0.96 0.96 0.89 0.91 0.94 0.91 0.85 0.84 0.82 0.60 0.45 0.44 0.47 0.53 0.56 0.51 0.42 0.35 0.28
0.83 0.99 0.95 0.90 0.96 1.01 1.11 1.25 1.30 1.33 1.13 1.04 0.96 0.98 0.90 0.79 0.65 0.63 0.61 0.57 0.50 0.43 0.49 0.63 0.80 0.89 0.87 0.91 0.98 0.94 0.84 0.76 0.72 0.61 0.44 0.40 0.42 0.45 0.49 0.50 0.45 0.35 0.25
1.16 1.39 1.28 1.19 1.38 1.29 1.39 1.59 1.55 1.46 1.30 1.20 1.06 0.93 0.84 0.71 0.52 0.51 0.48 0.50 0.54 0.40 0.42 0.58 0.66 0.67 0.80 0.92 0.98 0.99 0.96 0.87 0.70 0.61 0.51 0.50 0.54 0.55 0.52 0.46 0.43 0.34 0.24
1.34 1.58 1.43 1.43 1.49 1.61 1.62 1.44 1.70 1.63 1.45 1.38 1.14 0.92 0.70 0.57 0.47 0.43 0.39 0.33 0.38 0.37 0.32 0.38 0.46 0.54 0.74 1.00 1.03 1.05 1.10 1.10 0.96 0.87 0.93 0.96 0.98 0.91 0.75 0.56 0.43 0.33 0.25
1.57 1.80 1.61 1.49 1.60 1.73 1.65 1.58 1.67 1.66 1.47 1.43 1.09 0.76 0.63 0.47 0.41 0.40 0.36 0.32 0.28 0.26 0.28 0.36 0.53 0.53 0.56 0.71 0.88 0.98 1.08 1.21 1.23 1.46 1.76 1.72 1.64 1.40 1.04 0.76 0.54 0.43 0.34
1.61 1.86 1.65 1.70 1.67 1.62 1.59 1.61 1.78 1.74 1.53 1.55 1.26 0.83 0.53 0.36 0.30 0.34 0.39 0.38 0.30 0.32 0.43 0.53 0.58 0.61 0.68 0.62 0.66 0.74 0.96 1.19 1.22 1.40 1.80 2.06 2.15 1.77 1.24 0.93 0.68 0.50 0.41
1.58 1.70 1.69 1.58 1.61 1.63 1.59 1.60 1.73 1.55 1.34 1.44 1.39 1.23 0.74 0.50 0.38 0.37 0.52 0.55 0.49 0.50 0.51 0.52 0.59 0.66 0.74 0.89 0.84 0.60 0.69 0.95 1.07 1.14 1.34 1.81 2.03 1.70 1.24 1.07 0.85 0.66 0.54
1.53 1.57 1.60 1.58 1.55 1.55 1.54 1.63 1.61 1.49 1.32 1.30 1.41 1.51 1.18 0.82 0.57 0.35 0.35 0.44 0.53 0.54 0.50 0.52 0.51 0.54 0.61 0.85 0.99 0.89 0.64 0.67 0.86 1.07 1.21 1.46 1.68 1.48 1.23 1.14 1.04 0.84 0.70
1.34 1.33 1.33 1.35 1.38 1.38 1.43 1.36 1.34 1.42 1.42 1.32 1.37 1.41 1.36 1.25 1.05 0.57 0.34 0.38 0.49 0.53 0.52 0.49 0.49 0.54 0.58 0.71 0.88 0.99 0.87 0.77 0.80 0.84 1.01 1.19 1.32 1.22 1.16 1.20 1.31 1.17 0.88
1.31 1.24 1.23 1.20 1.19 1.19 1.22 1.22 1.35 1.36 1.37 1.33 1.29 1.28 1.36 1.35 1.24 0.96 0.57 0.49 0.50 0.48 0.52 0.54 0.56 0.64 0.74 0.79 0.92 0.93 0.97 0.86 0.90 0.76 0.69 0.78 0.88 1.00 1.04 1.17 1.47 1.55 1.33
1.10 1.12 1.11 1.08 1.07 1.11 1.18 1.17 1.16 1.17 1.19 1.21 1.16 1.13 1.18 1.16 1.14 1.15 0.90 0.78 0.72 0.65 0.67 0.68 0.69 0.73 0.71 0.76 0.79 0.91 0.88 0.76 0.75 0.73 0.58 0.53 0.57 0.67 0.79 1.02 1.32 1.53 1.58
0.89 0.90 0.95 0.97 1.00 1.06 1.14 1.12 1.05 1.01 1.05 1.08 1.06 1.10 1.13 1.11 1.15 1.26 1.30 1.16 1.03 0.85 0.82 0.79 0.72 0.74 0.69 0.77 0.77 0.68 0.55 0.48 0.43 0.42 0.40 0.42 0.47 0.50 0.58 0.71 0.94 1.18 1.34
0.72 0.73 0.79 0.86 0.93 0.98 1.02 1.10 1.10 1.07 1.06 1.05 1.02 1.16 1.14 1.07 1.09 1.19 1.33 1.43 1.31 1.09 1.03 0.89 0.74 0.65 0.69 0.70 0.59 0.42 0.32 0.27 0.23 0.22 0.23 0.26 0.30 0.33 0.41 0.51 0.64 0.76 0.89
0.86 0.82 0.84 0.88 0.95 1.02 1.08 1.15 1.21 1.20 1.22 1.22 1.24 1.27 1.19 1.07 1.05 1.15 1.36 1.48 1.50 1.29 1.12 0.99 0.85 0.62 0.60 0.55 0.46 0.40 0.36 0.24 0.16 0.15 0.14 0.14 0.17 0.20 0.24 0.30 0.38 0.46 0.54
0.92 0.90 0.91 0.89 0.91 0.96 1.06 1.15 1.26 1.30 1.33 1.39 1.40 1.40 1.36 1.28 1.26 1.29 1.40 1.51 1.57 1.52 1.21 1.04 1.02 0.80 0.64 0.48 0.43 0.37 0.29 0.20 0.13 0.12 0.12 0.10 0.11 0.14 0.17 0.20 0.24 0.28 0.33
0.82 0.79 0.77 0.73 0.76 0.79 0.82 0.89 0.97 1.03 1.09 1.15 1.18 1.26 1.34 1.41 1.38 1.37 1.38 1.38 1.47 1.52 1.21 1.18 1.29 1.11 0.88 0.68 0.52 0.43 0.32 0.28 0.21 0.15 0.13 0.12 0.11 0.12 0.15 0.20 0.22 0.23 0.27
0.59 0.56 0.54 0.53 0.54 0.55 0.56 0.59 0.67 0.81 0.91 0.98 1.04 1.08 1.04 1.07 1.11 1.16 1.20 1.25 1.33 1.46 1.30 1.24 1.42 1.41 1.14 0.80 0.66 0.57 0.42 0.33 0.28 0.22 0.16 0.13 0.14 0.15 0.15 0.17 0.23 0.27 0.28
0.33 0.34 0.38 0.39 0.38 0.40 0.44 0.48 0.56 0.67 0.75 0.81 0.85 0.84 0.77 0.78 0.80 0.86 0.90 0.98 1.08 1.33 1.34 1.36 1.52 1.47 1.21 0.93 0.79 0.64 0.53 0.50 0.38 0.32 0.23 0.16 0.13 0.14 0.18 0.18 0.22 0.31 0.34
0.24 0.25 0.30 0.34 0.34 0.37 0.46 0.58 0.67 0.68 0.68 0.65 0.60 0.56 0.57 0.65 0.68 0.73 0.78 0.79 0.83 0.97 1.06 1.19 1.38 1.43 1.27 1.07 0.98 0.83 0.72 0.67 0.56 0.43 0.39 0.27 0.22 0.18 0.18 0.20 0.23 0.31 0.43
0.20 0.21 0.28 0.33 0.38 0.42 0.43 0.49 0.56 0.57 0.59 0.56 0.49 0.41 0.39 0.46 0.52 0.57 0.60 0.64 0.67 0.78 0.84 0.92 1.10 1.29 1.22 1.05 0.95 0.92 0.86 0.82 0.75 0.63 0.62 0.48 0.39 0.32 0.25 0.22 0.25 0.34 0.50
0.18 0.21 0.24 0.26 0.26 0.25 0.28 0.31 0.38 0.41 0.39 0.40 0.38 0.31 0.27 0.31 0.37 0.44 0.52 0.54 0.54 0.57 0.66 0.81 0.91 0.96 0.95 0.94 0.97 0.95 0.95 0.90 0.93 0.86 0.89 0.87 0.79 0.71 0.54 0.37 0.29 0.30 0.42
0.22 0.26 0.25 0.22 0.21 0.21 0.18 0.17 0.19 0.28 0.30 0.26 0.24 0.24 0.22 0.23 0.29 0.32 0.37 0.37 0.41 0.43 0.47 0.61 0.65 0.69 0.75 0.77 0.89 1.03 1.11 1.16 1.20 1.16 1.20 1.29 1.24 1.20 0.79 0.63 0.55 0.42 0.38
0.32 0.33 0.32 0.27 0.26 0.25 0.18 0.15 0.17 0.20 0.24 0.23 0.20 0.18 0.18 0.20 0.22 0.21 0.26 0.29 0.27 0.27 0.27 0.29 0.34 0.45 0.77 0.89 0.83 0.90 1.06 1.16 1.23 1.28 1.33 1.55 1.47 1.47 1.17 0.81 0.59 0.42 0.36
0.37 0.37 0.36 0.33 0.32 0.29 0.22 0.18 0.17 0.21 0.23 0.23 0.21 0.17 0.13 0.14 0.19 0.18 0.19 0.20 0.21 0.21 0.22 0.23 0.28 0.33 0.43 0.57 0.70 0.73 0.77 0.90 1.22 1.40 1.39 1.55 1.59 1.54 1.58 1.37 0.88 0.53 0.34
0.42 0.38 0.35 0.36 0.36 0.33 0.25 0.18 0.17 0.21 0.23 0.24 0.24 0.20 0.16 0.13 0.13 0.13 0.14 0.14 0.15 0.15 0.15 0.16 0.20 0.23 0.25 0.24 0.24 0.25 0.29 0.40 0.62 0.90 1.02 1.25 1.53 1.58 1.78 1.88 1.50 0.99 0.66